Find Starlink 31497

NORAD ID: 60592 Int'l Des: 2024-150 Owner: SPXS Country: US Constellation: starlink operational
LEOCIRCULAR

Current View

Loading 3D Globe...

About Starlink 31497

Starlink 31497 (NORAD 60592) is a starlink constellation satellite (v2 mini) launched Aug 20, 2024 by SPXS of US. It operates in LEO, CIRCULAR orbit with a mass of 730.00 kg.

About Starlink 31497

Description loading...

Upcoming Passes

Passes for default location (London). Set your location on the main map for personalized predictions.

Altitude History

Loading altitude history...

Two-Line Element Set

1 60592U 24150K 26175.27082629 .00000614 00000-0 29307-4 0 9997
2 60592 53.1593 170.2534 0001171 86.8633 273.2504 15.34395904104388
Epoch: Jun 24, 2026 • Age: 16 hours

Current Status

Altitude 463.1 km
Velocity 7.64 km/s
Sub-Earth Point 3.82°N, 75.32°W
Launch Date Aug 20, 2024
Age 1.8 years
Type internet

Technical Details

Classification Payload
Mass 730.00 kg
Dry Mass 700.00 kg
Total Mass 730.00 kg
Length 0.30 m
Diameter 4.10 m
Span 29.00 m
Shape Box + pan
Manufacturer SPXS
Bus Type Starlink V2M
Phase Status In Orbit
Owner/State SPXS/US

Most Searched